Location: *
(41.7492°S, 135.4150°W)
Time: 22:47:24
(UTC+00:00)

METEOR M2 - Pass Details

Date: 03 July 2022
Orbit: 818 x 827 km, 98.4° (Epoch: 17 August)

Event Time Altitude Azimuth Distance (km) Brightness Sun altitude
Rises 13:29:20 0° 67° (ENE) 3,360 ? -32.7°
Reaches altitude 10° 13:32:49 10° 91° (E) 2,435 ? -32.1°
Maximum altitude 13:35:30 14° 121° (ESE) 2,162 ? -31.6°
Drops below altitude 10° 13:38:12 10° 151° (SSE) 2,447 ? -31.1°
Sets 13:41:42 0° 175° (S) 3,388 ? -30.4°
